Metz-Nancy-Lorraine, France

7:22 PM CET on February 12, 2016 (GMT +0100)
Metz-Nancy / Lorraine

Weather History for LFJL - March, 2013

Change the Weather History Date:

Monday, March 4, 2013

  Actual Average (LFSN) Record (LFSN)
Temperature  
Mean Temperature 40 °F -  
Max Temperature 51 °F 50 °F 64 °F (1998)
Min Temperature 30 °F 37 °F 28 °F (2011)
Degree Days  
Heating Degree Days 24    
Moisture  
Dew Point 29 °F    
Average Humidity 70    
Maximum Humidity 87    
Minimum Humidity 44    
Precipitation  
Precipitation 0.00 in - - ()
Sea Level Pressure  
Sea Level Pressure 30.01 in    
Wind  
Wind Speed 11 mph ()    
Max Wind Speed 20 mph    
Max Gust Speed -    
Visibility 5.6 miles    
Events      
Averages and records for this station are not official NWS values.
T = Trace of Precipitation, MM = Missing Value Source: Averaged Metar Reports

Daily Weather History Graph

Daily Weather History Graph

Search for Another Location

Airport or City:

Trip Planner

Search our weather history database for the weather conditions in past years. The results will help you decide how hot, cold, wet, or windy it might be!

Date:

Astronomy

Mar. 04, 2013 Rise Set
Actual Time 7:11 AM CET 6:23 PM CET
Civil Twilight 6:39 AM CET 6:54 PM CET
Nautical Twilight 6:02 AM CET 7:31 PM CET
Astronomical Twilight 5:25 AM CET 8:08 PM CET
Moon 1:23 AM CET (3/4) 10:28 AM CET (3/4)
Length of Visible Light 12h 15m
Length of Day
11h 12m
Waning Gibbous, 55% of the Moon is Illuminated
Mar 4
Waning Gibbous
Mar 4
Last Quarter
Mar 11
New
Mar 19
First Quarter
Mar 27
Full

Hourly Weather History & Observations

Time (CET) Temp. Windchill Dew Point Humidity Pressure Visibility Wind Dir Wind Speed Gust Speed Precip Events Conditions
12:00 AM 32.0 °F 23.0 °F 28.4 °F 87% 30.09 in 5.0 mi ENE 11.5 mph - N/A   Unknown
12:30 AM 33.8 °F 23.2 °F 28.4 °F 81% 30.09 in 5.6 mi ENE 17.3 mph - N/A   Unknown
1:00 AM 33.8 °F 22.5 °F 28.4 °F 81% 30.06 in 5.6 mi East 19.6 mph - N/A   Unknown
1:30 AM 33.8 °F 22.5 °F 28.4 °F 81% 30.09 in 6.2 mi ENE 19.6 mph - N/A   Unknown
2:00 AM 32.0 °F 21.6 °F 28.4 °F 87% 30.09 in 6.2 mi ENE 15.0 mph - N/A   Unknown
2:30 AM 32.0 °F 23.6 °F 26.6 °F 80% 30.09 in 5.6 mi ENE 10.4 mph - N/A   Unknown
3:00 AM 30.2 °F 21.9 °F 26.6 °F 86% 30.06 in 5.6 mi ENE 9.2 mph - N/A   Unknown
3:30 AM 30.2 °F 22.6 °F 26.6 °F 86% 30.06 in 5.0 mi ENE 8.1 mph - N/A   Unknown
4:00 AM 30.2 °F 21.9 °F 26.6 °F 86% 30.04 in 4.3 mi ENE 9.2 mph - N/A   Unknown
4:30 AM 30.2 °F 21.3 °F 26.6 °F 86% 30.04 in 4.3 mi ENE 10.4 mph - N/A   Unknown
5:00 AM 32.0 °F 23.0 °F 26.6 °F 80% 30.04 in 4.3 mi ENE 11.5 mph - N/A   Unknown
5:30 AM 32.0 °F 21.6 °F 28.4 °F 87% 30.04 in 4.3 mi East 15.0 mph - N/A   Unknown
6:00 AM 32.0 °F 23.6 °F 26.6 °F 80% 30.04 in 4.3 mi ENE 10.4 mph - N/A   Unknown
6:30 AM 30.2 °F 24.3 °F 26.6 °F 86% 30.04 in 4.3 mi NE 5.8 mph - N/A   Unknown
7:00 AM 30.2 °F 24.3 °F 26.6 °F 86% 30.04 in 4.3 mi NE 5.8 mph - N/A   Unknown
7:30 AM 30.2 °F 26.7 °F 26.6 °F 86% 30.04 in 4.3 mi NE 3.5 mph - N/A   Unknown
8:00 AM 32.0 °F 24.8 °F 26.6 °F 80% 30.04 in 4.3 mi ENE 8.1 mph - N/A   Unknown
8:30 AM 32.0 °F 24.2 °F 28.4 °F 87% 30.04 in 4.3 mi East 9.2 mph - N/A   Unknown
9:00 AM 33.8 °F 27.0 °F 28.4 °F 81% 30.04 in 5.0 mi ENE 8.1 mph - N/A   Unknown
9:30 AM 35.6 °F 29.2 °F 28.4 °F 75% 30.04 in 5.0 mi East 8.1 mph - N/A   Unknown
10:00 AM 37.4 °F 29.8 °F 28.4 °F 70% 30.04 in 5.6 mi East 11.5 mph - N/A   Unknown
10:30 AM 39.2 °F 32.0 °F 28.4 °F 65% 30.04 in 5.6 mi East 11.5 mph - N/A   Unknown
11:00 AM 39.2 °F 31.6 °F 28.4 °F 65% 30.04 in 6.2 mi East 12.7 mph - N/A   Unknown
11:30 AM 41.0 °F 34.3 °F 30.2 °F 65% 30.04 in 6.2 mi East 11.5 mph - N/A   Unknown
12:00 PM 44.6 °F 38.1 °F 32.0 °F 61% 30.04 in 6.2 mi East 13.8 mph - N/A   Unknown
12:30 PM 44.6 °F 39.2 °F 30.2 °F 57% 30.04 in 6.2 mi East 10.4 mph - N/A   Unknown
1:00 PM 46.4 °F 41.1 °F 30.2 °F 53% 30.01 in 6.2 mi East 11.5 mph - N/A   Unknown
1:30 PM 48.2 °F - 30.2 °F 50% 30.01 in 6.2 mi ESE 12.7 mph - N/A   Unknown
2:00 PM 50.0 °F - 30.2 °F 47% 29.98 in 6.2 mi East 12.7 mph - N/A   Unknown
2:30 PM 51.8 °F - 32.0 °F 47% 29.98 in 6.2 mi East 10.4 mph - N/A   Unknown
3:00 PM 51.8 °F - 30.2 °F 44% 29.98 in 6.2 mi East 11.5 mph - N/A   Unknown
3:30 PM 51.8 °F - 32.0 °F 47% 29.95 in 6.2 mi East 12.7 mph - N/A   Unknown
4:00 PM 51.8 °F - 32.0 °F 47% 29.95 in 6.2 mi East 12.7 mph - N/A   Unknown
4:30 PM 51.8 °F - 32.0 °F 47% 29.95 in 6.2 mi East 12.7 mph - N/A   Unknown
5:00 PM 51.8 °F - 33.8 °F 50% 29.95 in 6.2 mi East 12.7 mph - N/A   Unknown
5:30 PM 50.0 °F - 33.8 °F 54% 29.92 in 6.2 mi East 15.0 mph - N/A   Unknown
6:00 PM 46.4 °F 41.1 °F 33.8 °F 62% 29.95 in 6.2 mi East 11.5 mph - N/A   Unknown
6:30 PM 44.6 °F 37.8 °F 32.0 °F 61% 29.95 in 6.2 mi East 15.0 mph - N/A   Unknown
7:00 PM 42.8 °F 35.4 °F 32.0 °F 66% 29.95 in 6.2 mi ESE 15.0 mph - N/A   Unknown
7:30 PM 42.8 °F 35.4 °F 32.0 °F 66% 29.95 in 6.2 mi ESE 15.0 mph - N/A   Unknown
8:00 PM 42.8 °F 35.4 °F 32.0 °F 66% 29.95 in 6.2 mi East 15.0 mph - N/A   Unknown
8:30 PM 42.8 °F 35.4 °F 30.2 °F 61% 29.95 in 6.2 mi East 15.0 mph - N/A   Unknown
9:00 PM 41.0 °F 32.8 °F 30.2 °F 65% 29.92 in 6.2 mi East 16.1 mph - N/A   Unknown
9:30 PM 41.0 °F 32.2 °F 30.2 °F 65% 29.92 in 6.2 mi East 18.4 mph - N/A   Unknown
10:00 PM 37.4 °F 29.3 °F 28.4 °F 70% 29.95 in 6.2 mi East 12.7 mph - N/A   Unknown
10:30 PM 37.4 °F 33.8 °F 28.4 °F 70% 29.95 in 6.2 mi East 4.6 mph - N/A   Unknown
11:00 PM 33.8 °F - 26.6 °F 75% 29.95 in 6.2 mi Variable 2.3 mph - N/A   Unknown
11:30 PM 35.6 °F 27.5 °F 28.4 °F 75% 29.92 in 5.6 mi ENE 11.5 mph - N/A   Unknown